星链-4492 (STARLINK-4492 )

导读 | 豆包AI

STARLINK-4492是美国SpaceX公司星链星座的一员,于2022年8月10日发射入轨,属于星链低轨互联网通信卫星组网任务。它运行在近地轨道,采用平板设计,搭载Ku/Ka波段通信载荷与霍尔推进器,具备自主避撞能力,服务全球宽带互联网接入。作为星链大规模星座部署的组成部分,它助力星链在全球范围,尤其是偏远区域提供低延迟网络服务,星链星座累计发射超万颗卫星,持续推进全球覆盖。

基本信息
目录编号:
53410
目录名称:
STARLINK-4492
国际标识:
2022-097Y
轨道中心:
EARTH
卫星名称:
星链-4492
卫星全名:
星链-4492 (STARLINK-4492 )
卫星状态:
在轨 (已飞行1359 天)
发射日期:
2022-08-10 UTC
国别 :
美国 (US)
星等 :
--
轨道信息
数据来源 国际轨道数据 AOE轨道数据
星历时间 2026-04-30T09:05:47+0800
17小时前
查看轨道信息
2026-04-30T07:00:00+0800
19小时前
查看轨道信息
半长轴 6917.879km 6917.895km
偏心率 0.0001135 0.0001113
轨道倾角 53.217° 53.217°
近地点辐角 88.864° 70.615°
升交点赤经 243.574° 243.968°
平近点角 271.248° 174.737°
近地点 538.956km 538.988km
远地点 540.528km 540.528km
周期 95.438分钟 95.438分钟
每日圈数 15.088406 15.088355
详细信息
固有亮度:
5
最大亮度:
2.5
卫星平台:
Starlink v1.5
覆盖范围:
全球
运营商:
太空探索技术公司
运营商所在国:
美国
制造商(研发单位):
太空探索技术公司
制造商所在国:
美国
使用方式:
暂无
卫星简介
星链(Starlink)计划是由太空探索技术公司(SpaceX)提出的一个巨型低轨卫星互联网星座项目,计划在2019年至2024年间在太空搭建由约1.2万颗卫星组成的“星链”网络,其中1584颗将部署在地球上空550千米处的近地轨道,并从2020年开始工作。该卫星仍在工作。
2D轨道图
3D轨道图
轨道高度分析图
轨道倾角分析图
轨道综合分析图
查看轨道综合分析图